Regional Weather Roundup
Issued by NWS Jackson, KY

Home | Current Version | Previous Version | Graphics & Text | Print | Product List | Glossary On
Versions: 1 2 3 4 5 6 7 8 9 10 11 12 13 14 15 16 17 18 19 20 21 22 23 24 25 26 27 28 29 30 31 32 33 34 35 36 37 38 39 40 41 42 43 44 45 46 47 48 49 50
000
ASUS43 KJKL 111210
RWRJKL

EAST KENTUCKY HOURLY WEATHER ROUNDUP
NATIONAL WEATHER SERVICE JACKSON KY
700 AM EST THU FEB 11 2016

NOTE: "FAIR" INDICATES FEW OR NO CLOUDS BELOW 12,000 FEET WITH
NO SIGNIFICANT WEATHER AND/OR OBSTRUCTIONS TO VISIBILITY.

* THESE REPORTS ARE NOT UNDER NWS QUALITY CONTROL AND MAY NOT
  REPORT WEATHER SUCH AS PRECIPITATION AND FOG.

KYZ079-080-083-085-087-088-110-112-115-119-120-111300
...EASTERN KENTUCKY...

CITY           SKY/WX    TMP DP  RH WIND       PRES   REMARKS
JACKSON        CLOUDY    15   9  76 CALM      30.16R
6HR MIN TEMP:  15; 6HR MAX TEMP:  17;

LONDON         CLOUDY    20  11  68 CALM      30.18R
6HR MIN TEMP:  18; 6HR MAX TEMP:  20;

SOMERSET*      CLOUDY    21  16  79 CALM      30.22R
MONTICELLO*    CLOUDY    22  18  85 MISG      30.22R
6HR MIN TEMP:  22; 6HR MAX TEMP:  23; 6HR PCP: TRACE;

WILLIAMSBURG*  CLOUDY    21  18  86 CALM      30.19R
MIDDLESBORO*   CLOUDY    23  15  72 CALM      30.18R
6HR MIN TEMP:  20; 6HR MAX TEMP:  23;

HARLAN APT*    CLOUDY    19  14  79 CALM      30.16R
BLACK MTN*       N/A      9   7  92 CALM        N/A
BIG SANDY*     CLOUDY    16   8  71 CALM      30.18R
6HR MIN TEMP:  16; 6HR MAX TEMP:  18;

MOREHEAD APT*  CLOUDY    14   9  79 CALM      30.22R
$$

KYZ035-036-041-042-044-050-067-078-099-111300
...CENTRAL KENTUCKY...

CITY           SKY/WX    TMP DP  RH WIND       PRES   REMARKS
MT STERLING*   CLOUDY    14  12  92 CALM      30.21R
DANVILLE*      CLOUDY    19  14  79 CALM      30.20R
RICHMOND*      CLOUDY    19  12  73 CALM      30.19R
LEXINGTON      CLOUDY    15  10  80 CALM      30.20R
6HR MIN TEMP:  15; 6HR MAX TEMP:  19;

FRANKFORT        N/A     17  10  74 CALM      30.21R
6HR MIN TEMP:  16; 6HR MAX TEMP:  20;

$$

KYZ091>093-OHZ055-061-077-WVZ005-015-034-035-042-111300
...SOUTHERN OHIO/WEST VIRGINIA...

CITY           SKY/WX    TMP DP  RH WIND       PRES   REMARKS
COVINGTON      CLOUDY    12   6  77 W5        30.20R WCI   4
COLUMBUS       PTCLDY     7   0  73 W3        30.17R
DAYTON         PTCLDY     9   5  84 W7        30.18R WCI  -2
WILMINGTON     CLEAR      8   4  83 W6        30.17R WCI  -2
HUNTINGTON     CLOUDY    16   6  65 W7        30.20R WCI   6
CHARLESTON     MOCLDY    16   4  59 W8        30.18R WCI   5
PINEVILLE*     LGT SNOW  15   8  73 MISG      30.16R
BECKLEY        CLOUDY    10   3  73 NW7       30.02R WCI  -1
$$

VAZ002-007-008-TNZ017-027-036-066-071-111300
...SOUTHWEST VIRGINIA/EAST TENNESSEE...

CITY           SKY/WX    TMP DP  RH WIND       PRES   REMARKS
BRISTOL        CLOUDY    19  12  74 SW5       30.15R WCI  12
KNOXVILLE      CLOUDY    26  19  74 CALM      30.18R
OAK RIDGE      CLOUDY    27  18  69 CALM      30.20R
CROSSVILLE     CLOUDY    23  17  78 CALM      30.12R
NASHVILLE      CLOUDY    26  20  77 E3        30.21R
$$

...KEY TO REMARKS...
VSB - VISIBILITY IN MILES
WCI - WIND CHILL INDEX
HX  - HEAT INDEX

$$



USA.gov is the U.S. government's official web portal to all federal, state and local government web resources and services.